Change the Weather History Date:

Sunday, September 8, 2013

  Actual Average (KDAY) Record (KDAY)
Temperature  
Mean Temperature 75 °F 68 °F  
Max Temperature 88 °F 79 °F 98 °F (1900)
Min Temperature 62 °F 58 °F 42 °F (1898)
Degree Days  
Heating Degree Days 0 1  
Month to date heating degree days 8  
Since 1 July heating degree days 10  
Cooling Degree Days 10 5  
Month to date cooling degree days 43  
Year to date cooling degree days 825  
Growing Degree Days 25 (Base 50)    
Moisture  
Dew Point 62 °F    
Average Humidity 66    
Maximum Humidity 89    
Minimum Humidity 31    
Precipitation  
Precipitation 0.00 in 0.11 in 0.92 in (2007)
Month to date precipitation 0.91  
Year to date precipitation 29.22  
Snow  
Snow 0.00 in 0.00 in 0.00 in ()
Month to date snowfall 0.0  
Since 1 July snowfall 0.0  
Since 1 September snowfall 0.0  
Snow Depth -    
Sea Level Pressure  
Sea Level Pressure 29.99 in    
Wind  
Wind Speed 2 mph (NE)    
Max Wind Speed 14 mph    
Max Gust Speed -    
Visibility 7 miles    
Events Fog , Rain    
T = Trace of Precipitation, MM = Missing Value Source: NWS Daily Summary

Daily Weather History Graph

Daily Weather History Graph

Search for Another Location

Airport or City:

Trip Planner

Search our weather history database for the weather conditions in past years. The results will help you decide how hot, cold, wet, or windy it might be!

Date:

Astronomy

Sep. 08, 2013 Rise Set
Actual Time 7:12 AM EDT 7:57 PM EDT
Civil Twilight 6:45 AM EDT 8:24 PM EDT
Nautical Twilight 6:13 AM EDT 8:56 PM EDT
Astronomical Twilight 5:39 AM EDT 9:29 PM EDT
Moon 10:28 AM EDT (9/8) 9:33 PM EDT (9/8)
Length of Visible Light 13h 38m
Length of Day
12h 44m
Waxing Crescent, 11% of the Moon is Illuminated
Sep 8
Waxing Crescent
Sep 12
First Quarter
Sep 19
Full
Sep 26
Last Quarter
Oct 4
New

Hourly Weather History & Observations

Time (EDT) Temp. Heat Index Dew Point Humidity Pressure Visibility Wind Dir Wind Speed Gust Speed Precip Events Conditions
12:15 AM 69.4 °F - 64.9 °F 86% 29.99 in 5.0 mi Calm Calm - N/A   Haze
12:35 AM 68.9 °F - 64.4 °F 86% 29.99 in 5.0 mi Calm Calm - N/A   Haze
12:55 AM 68.7 °F - 64.4 °F 86% 29.99 in 4.0 mi Calm Calm - N/A   Haze
1:15 AM 67.6 °F - 63.5 °F 87% 29.99 in 4.0 mi Calm Calm - N/A   Haze
1:35 AM 70.2 °F - 65.7 °F 86% 29.99 in 5.0 mi SW 3.5 mph - N/A Rain Light Rain
1:55 AM 70.2 °F - 64.9 °F 83% 29.99 in 7.0 mi Calm Calm - N/A   Scattered Clouds
2:15 AM 68.9 °F - 64.4 °F 86% 29.99 in 4.0 mi Calm Calm - N/A   Haze
2:35 AM 67.6 °F - 63.5 °F 87% 29.99 in 4.0 mi Calm Calm - N/A   Mostly Cloudy
2:55 AM 67.6 °F - 63.5 °F 87% 29.98 in 4.0 mi Calm Calm - N/A   Scattered Clouds
3:15 AM 67.6 °F - 63.5 °F 87% 29.98 in 0.5 mi Calm Calm - N/A Fog Fog
3:35 AM 67.6 °F - 63.9 °F 88% 29.98 in 0.5 mi Calm Calm - N/A Fog Fog
3:55 AM 67.6 °F - 63.7 °F 87% 29.98 in 0.5 mi Calm Calm - N/A Fog Fog
4:15 AM 67.6 °F - 63.9 °F 88% 29.98 in 1.2 mi Calm Calm - N/A   Mist
4:35 AM 67.6 °F - 63.9 °F 88% 29.98 in 1.0 mi Calm Calm - N/A   Mist
4:55 AM 65.3 °F - 61.7 °F 88% 29.98 in 0.2 mi Calm Calm - N/A Fog Fog
5:15 AM 64.9 °F - 61.2 °F 88% 29.98 in 0.2 mi Calm Calm - N/A Fog Fog
5:35 AM 65.3 °F - 61.7 °F 88% 29.98 in 1.5 mi Calm Calm - N/A   Scattered Clouds
5:55 AM 65.3 °F - 61.7 °F 88% 29.98 in 0.5 mi Calm Calm - N/A Fog Fog
6:15 AM 65.3 °F - 61.7 °F 88% 29.98 in 0.2 mi Calm Calm - N/A Fog Fog
6:35 AM 64.0 °F - 60.4 °F 88% 29.99 in 0.5 mi Calm Calm - N/A Fog Fog
6:55 AM 62.8 °F - 59.4 °F 89% 29.99 in 0.8 mi Calm Calm - N/A   Mist
7:15 AM 62.6 °F - 59.2 °F 89% 30.00 in 1.0 mi Calm Calm - N/A   Overcast
7:35 AM 62.6 °F - 59.2 °F 89% 30.01 in 1.8 mi Calm Calm - N/A   Overcast
7:55 AM 65.3 °F - 61.7 °F 88% 30.01 in 2.0 mi Calm Calm - N/A   Overcast
8:15 AM 67.6 °F - 64.4 °F 89% 30.00 in 2.5 mi Calm Calm - N/A   Scattered Clouds
8:35 AM 67.6 °F - 64.4 °F 89% 30.00 in 3.0 mi Calm Calm - N/A   Clear
8:55 AM 67.6 °F - 64.4 °F 89% 30.01 in 5.0 mi Calm Calm - N/A   Clear
9:15 AM 69.1 °F - 65.1 °F 87% 30.01 in 5.0 mi Calm Calm - N/A   Scattered Clouds
9:35 AM 72.7 °F - 66.2 °F 80% 30.01 in 7.0 mi Calm Calm - N/A   Scattered Clouds
9:55 AM 74.3 °F - 66.2 °F 76% 30.01 in 10.0 mi Calm Calm - N/A   Clear
10:15 AM 75.2 °F - 64.8 °F 70% 30.01 in 10.0 mi NE 3.5 mph - N/A   Clear
10:35 AM 77.9 °F - 65.1 °F 65% 30.01 in 10.0 mi NE 4.6 mph - N/A   Clear
10:55 AM 77.9 °F - 64.4 °F 63% 30.01 in 10.0 mi NE 4.6 mph - N/A   Clear
11:15 AM 78.4 °F - 63.5 °F 60% 30.01 in 10.0 mi ENE 5.8 mph - N/A   Clear
11:35 AM 79.3 °F - 63.5 °F 58% 30.01 in 10.0 mi ENE 3.5 mph - N/A   Clear
11:55 AM 80.2 °F 81.5 °F 62.8 °F 55% 30.01 in 10.0 mi ENE 5.8 mph - N/A   Clear
12:15 PM 81.1 °F 82.1 °F 62.2 °F 52% 30.00 in 10.0 mi Calm Calm - N/A   Clear
12:35 PM 85.1 °F 86.4 °F 63.9 °F 49% 30.00 in 10.0 mi Calm Calm - N/A   Clear
12:55 PM 85.1 °F 85.9 °F 62.6 °F 47% 30.00 in 10.0 mi Calm Calm - N/A   Clear
1:15 PM 87.8 °F 87.1 °F 59.4 °F 38% 30.00 in 10.0 mi Calm Calm - N/A   Clear
1:35 PM 87.8 °F 87.6 °F 61.0 °F 40% 30.00 in 10.0 mi Calm Calm - N/A   Mostly Cloudy
1:55 PM 87.8 °F 87.6 °F 60.4 °F 40% 30.00 in 10.0 mi Calm Calm - N/A   Scattered Clouds
2:15 PM 87.8 °F 86.9 °F 58.3 °F 37% 30.00 in 10.0 mi WSW 4.6 mph - N/A   Scattered Clouds
2:35 PM 87.8 °F 86.7 °F 57.9 °F 36% 29.99 in 10.0 mi WNW 3.5 mph - N/A   Scattered Clouds
2:55 PM 87.8 °F 86.7 °F 57.7 °F 36% 29.98 in 10.0 mi North 3.5 mph - N/A   Scattered Clouds
3:15 PM 87.8 °F 87.4 °F 59.9 °F 39% 29.98 in 10.0 mi North 3.5 mph - N/A   Clear
3:35 PM 87.8 °F 86.7 °F 57.6 °F 36% 29.98 in 10.0 mi North 8.1 mph - N/A   Scattered Clouds
3:55 PM 87.8 °F 86.3 °F 55.8 °F 34% 29.97 in 10.0 mi NW 4.6 mph - N/A   Scattered Clouds
4:15 PM 87.8 °F 86.3 °F 55.8 °F 34% 29.97 in 10.0 mi NW 6.9 mph - N/A   Mostly Cloudy
4:35 PM 88.3 °F 86.3 °F 54.1 °F 31% 29.96 in 10.0 mi NW 5.8 mph - N/A   Scattered Clouds
4:55 PM 87.8 °F 85.7 °F 54.0 °F 31% 29.96 in 10.0 mi West 4.6 mph - N/A   Scattered Clouds
5:15 PM 87.8 °F 86.1 °F 55.6 °F 33% 29.96 in 10.0 mi North 6.9 mph - N/A   Scattered Clouds
5:35 PM 87.8 °F 86.3 °F 55.9 °F 34% 29.96 in 10.0 mi NE 6.9 mph - N/A   Mostly Cloudy
5:55 PM 87.8 °F 86.3 °F 56.3 °F 34% 29.96 in 10.0 mi NNE 5.8 mph - N/A   Scattered Clouds
6:15 PM 87.8 °F 86.5 °F 56.7 °F 35% 29.96 in 10.0 mi NE 3.5 mph - N/A   Clear
6:35 PM 87.8 °F 86.7 °F 57.9 °F 36% 29.96 in 10.0 mi ENE 8.1 mph - N/A   Scattered Clouds
6:55 PM 82.8 °F 83.3 °F 61.2 °F 48% 29.96 in 10.0 mi ENE 9.2 mph - N/A   Clear
7:15 PM 81.3 °F 82.6 °F 63.1 °F 54% 29.97 in 10.0 mi ENE 13.8 mph - N/A   Scattered Clouds
7:35 PM 79.7 °F - 63.5 °F 58% 29.98 in 10.0 mi ENE 12.7 mph - N/A   Scattered Clouds
7:55 PM 78.4 °F - 63.5 °F 60% 29.98 in 10.0 mi ENE 8.1 mph - N/A   Clear
8:15 PM 77.9 °F - 63.7 °F 61% 29.99 in 10.0 mi ENE 9.2 mph - N/A   Clear
8:35 PM 77.9 °F - 64.4 °F 63% 29.99 in 10.0 mi ENE 8.1 mph - N/A   Clear
8:55 PM 76.1 °F - 63.0 °F 64% 30.00 in 10.0 mi ENE 10.4 mph - N/A   Clear
9:15 PM 75.2 °F - 62.6 °F 65% 30.01 in 10.0 mi ENE 8.1 mph - N/A   Clear
9:35 PM 75.2 °F - 62.8 °F 65% 30.01 in 10.0 mi ENE 9.2 mph - N/A   Clear
9:55 PM 75.2 °F - 63.0 °F 66% 30.01 in 10.0 mi ENE 8.1 mph - N/A   Clear
10:15 PM 75.0 °F - 63.7 °F 68% 30.02 in 10.0 mi ENE 8.1 mph - N/A   Clear
10:35 PM 74.7 °F - 63.3 °F 68% 30.02 in 10.0 mi NE 8.1 mph - N/A   Clear
10:55 PM 72.7 °F - 61.9 °F 69% 30.02 in 10.0 mi NE 6.9 mph - N/A   Clear
11:15 PM 72.7 °F - 62.4 °F 70% 30.03 in 10.0 mi NE 4.6 mph - N/A   Clear
11:35 PM 72.7 °F - 63.3 °F 72% 30.03 in 10.0 mi NE 3.5 mph - N/A   Clear
11:55 PM 72.7 °F - 63.9 °F 74% 30.04 in 10.0 mi NNE 3.5 mph - N/A   Clear